Time,TemperatureF,DewpointF,PressureIn,WindDirection,WindDirectionDegrees,WindSpeedMPH,WindSpeedGustMPH,Humidity,HourlyPrecipIn,Conditions,Clouds,dailyrainin,SoftwareType,DateUTC
2013-06-05 00:02:00,57.0,37.0,30.13,WNW,300,10.0,-999.0,47,-99.99,,,-99.99,,2013-06-05 04:02:00,
2013-06-05 00:13:00,55.0,37.0,30.13,WNW,300,9.0,-999.0,50,-99.99,,,-99.99,,2013-06-05 04:13:00,
2013-06-05 00:23:00,55.0,37.0,30.13,WNW,290,9.0,-999.0,50,-99.99,,,-99.99,,2013-06-05 04:23:00,
2013-06-05 00:33:00,55.0,37.0,30.14,WNW,290,8.0,-999.0,50,-99.99,,,-99.99,,2013-06-05 04:33:00,
2013-06-05 00:42:00,55.0,37.0,30.14,WNW,290,7.0,-999.0,50,-99.99,,,-99.99,,2013-06-05 04:42:00,
2013-06-05 00:53:00,55.0,37.0,30.14,WNW,300,9.0,-999.0,50,-99.99,,,-99.99,,2013-06-05 04:53:00,
2013-06-05 01:02:00,55.0,37.0,30.14,WNW,300,9.0,-999.0,50,-99.99,,,-99.99,,2013-06-05 05:02:00,
2013-06-05 01:12:00,55.0,37.0,30.14,NW,310,7.0,-999.0,50,-99.99,,,-99.99,,2013-06-05 05:12:00,
2013-06-05 01:22:00,55.0,37.0,30.14,WNW,290,5.0,-999.0,50,-99.99,,,-99.99,,2013-06-05 05:22:00,
2013-06-05 01:32:00,54.0,37.0,30.14,West,280,5.0,-999.0,54,-99.99,,,-99.99,,2013-06-05 05:32:00,
2013-06-05 01:42:00,54.0,37.0,30.14,West,280,3.0,-999.0,54,-99.99,,,-99.99,,2013-06-05 05:42:00,
2013-06-05 01:52:00,54.0,37.0,30.14,North,0,0.0,-999.0,54,-99.99,,,-99.99,,2013-06-05 05:52:00,
2013-06-05 02:02:00,54.0,37.0,30.14,North,0,0.0,-999.0,54,-99.99,,,-99.99,,2013-06-05 06:02:00,
2013-06-05 02:12:00,55.0,37.0,30.14,North,0,0.0,-999.0,50,-99.99,,,-99.99,,2013-06-05 06:12:00,
2013-06-05 02:22:00,54.0,39.0,30.14,North,0,0.0,-999.0,58,-99.99,,,-99.99,,2013-06-05 06:22:00,
2013-06-05 02:32:00,54.0,39.0,30.14,North,0,0.0,-999.0,58,-99.99,,,-99.99,,2013-06-05 06:32:00,
2013-06-05 02:42:00,54.0,41.0,30.14,North,0,0.0,-999.0,62,-99.99,,,-99.99,,2013-06-05 06:42:00,
2013-06-05 02:52:00,54.0,41.0,30.14,North,0,0.0,-999.0,62,-99.99,,,-99.99,,2013-06-05 06:52:00,
2013-06-05 03:02:00,54.0,41.0,30.14,North,0,0.0,-999.0,62,-99.99,,,-99.99,,2013-06-05 07:02:00,
2013-06-05 03:12:00,54.0,39.0,30.15,North,0,0.0,-999.0,58,-99.99,,,-99.99,,2013-06-05 07:12:00,
2013-06-05 03:22:00,54.0,39.0,30.14,North,0,0.0,-999.0,58,-99.99,,,-99.99,,2013-06-05 07:22:00,
2013-06-05 03:32:00,54.0,39.0,30.14,North,0,0.0,-999.0,58,-99.99,,,-99.99,,2013-06-05 07:32:00,
2013-06-05 03:42:00,54.0,39.0,30.14,North,0,0.0,-999.0,58,-99.99,,,-99.99,,2013-06-05 07:42:00,
2013-06-05 03:52:00,54.0,43.0,30.16,South,190,3.0,-999.0,66,-99.99,,,-99.99,,2013-06-05 07:52:00,
2013-06-05 04:02:00,54.0,43.0,30.16,South,190,3.0,-999.0,66,-99.99,,,-99.99,,2013-06-05 08:02:00,
2013-06-05 04:12:00,52.0,41.0,30.15,North,0,0.0,-999.0,66,-99.99,,,-99.99,,2013-06-05 08:12:00,
2013-06-05 04:22:00,52.0,41.0,30.15,North,0,0.0,-999.0,66,-99.99,,,-99.99,,2013-06-05 08:22:00,
2013-06-05 04:32:00,52.0,41.0,30.15,North,0,0.0,-999.0,66,-99.99,,,-99.99,,2013-06-05 08:32:00,
2013-06-05 04:42:00,52.0,41.0,30.15,North,0,0.0,-999.0,66,-99.99,,,-99.99,,2013-06-05 08:42:00,
2013-06-05 04:52:00,50.0,43.0,30.15,North,0,0.0,-999.0,76,-99.99,,,-99.99,,2013-06-05 08:52:00,
2013-06-05 05:02:00,50.0,43.0,30.15,North,0,0.0,-999.0,76,-99.99,,,-99.99,,2013-06-05 09:02:00,
2013-06-05 05:12:00,48.0,43.0,30.15,North,0,0.0,-999.0,81,-99.99,,,-99.99,,2013-06-05 09:12:00,
2013-06-05 05:22:00,48.0,43.0,30.16,North,0,0.0,-999.0,81,-99.99,,,-99.99,,2013-06-05 09:22:00,
2013-06-05 05:33:00,46.0,41.0,30.16,North,0,0.0,-999.0,81,-99.99,,,-99.99,,2013-06-05 09:33:00,
2013-06-05 05:43:00,46.0,43.0,30.16,North,0,0.0,-999.0,87,-99.99,,,-99.99,,2013-06-05 09:43:00,
2013-06-05 05:53:00,46.0,43.0,30.17,North,0,0.0,-999.0,87,-99.99,,,-99.99,,2013-06-05 09:53:00,
2013-06-05 06:03:00,46.0,43.0,30.17,North,0,0.0,-999.0,87,-99.99,,,-99.99,,2013-06-05 10:03:00,
2013-06-05 06:12:00,48.0,43.0,30.18,North,0,0.0,-999.0,81,-99.99,,,-99.99,,2013-06-05 10:12:00,
2013-06-05 06:22:00,48.0,43.0,30.18,North,0,0.0,-999.0,81,-99.99,,,-99.99,,2013-06-05 10:22:00,
2013-06-05 06:33:00,50.0,45.0,30.18,NNE,20,6.0,-999.0,81,-99.99,,,-99.99,,2013-06-05 10:33:00,
2013-06-05 06:42:00,48.0,45.0,30.18,North,10,6.0,-999.0,87,-99.99,,,-99.99,,2013-06-05 10:42:00,
2013-06-05 06:52:00,52.0,45.0,30.19,North,0,0.0,-999.0,76,-99.99,,,-99.99,,2013-06-05 10:52:00,
2013-06-05 07:02:00,52.0,45.0,30.19,North,0,0.0,-999.0,76,-99.99,,,-99.99,,2013-06-05 11:02:00,
2013-06-05 07:12:00,52.0,43.0,30.20,North,0,0.0,-999.0,71,-99.99,,,-99.99,,2013-06-05 11:12:00,
2013-06-05 07:22:00,54.0,45.0,30.20,North,0,0.0,-999.0,71,-99.99,,,-99.99,,2013-06-05 11:22:00,
2013-06-05 07:33:00,54.0,45.0,30.20,North,0,0.0,-999.0,71,-99.99,,,-99.99,,2013-06-05 11:33:00,
2013-06-05 07:42:00,54.0,45.0,30.20,North,0,0.0,-999.0,71,-99.99,,,-99.99,,2013-06-05 11:42:00,
2013-06-05 07:52:00,55.0,45.0,30.21,North,0,0.0,-999.0,66,-99.99,,,-99.99,,2013-06-05 11:52:00,
2013-06-05 08:02:00,55.0,45.0,30.21,North,0,0.0,-999.0,66,-99.99,,,-99.99,,2013-06-05 12:02:00,
2013-06-05 08:11:00,57.0,45.0,30.21,North,0,0.0,-999.0,62,-99.99,,,-99.99,,2013-06-05 12:11:00,
2013-06-05 08:21:00,57.0,43.0,30.22,WSW,250,3.0,-999.0,58,-99.99,,,-99.99,,2013-06-05 12:21:00,
2013-06-05 08:31:00,59.0,45.0,30.21,West,280,5.0,-999.0,58,-99.99,,,-99.99,,2013-06-05 12:31:00,
2013-06-05 08:43:00,61.0,43.0,30.22,WNW,290,5.0,-999.0,51,-99.99,,,-99.99,,2013-06-05 12:43:00,
2013-06-05 08:52:00,61.0,43.0,30.22,NNW,330,3.0,-999.0,51,-99.99,,,-99.99,,2013-06-05 12:52:00,
2013-06-05 09:02:00,61.0,43.0,30.22,NNW,330,3.0,-999.0,51,-99.99,,,-99.99,,2013-06-05 13:02:00,
2013-06-05 09:12:00,61.0,43.0,30.21,North,0,0.0,-999.0,51,-99.99,,,-99.99,,2013-06-05 13:12:00,
2013-06-05 09:22:00,63.0,43.0,30.21,North,0,0.0,-999.0,48,-99.99,,,-99.99,,2013-06-05 13:22:00,
2013-06-05 09:32:00,63.0,43.0,30.21,North,0,0.0,-999.0,48,-99.99,,,-99.99,,2013-06-05 13:32:00,
2013-06-05 09:42:00,63.0,45.0,30.21,North,0,0.0,-999.0,51,-99.99,,,-99.99,,2013-06-05 13:42:00,
2013-06-05 09:52:00,63.0,43.0,30.21,North,0,0.0,-999.0,48,-99.99,,,-99.99,,2013-06-05 13:52:00,
2013-06-05 10:02:00,63.0,43.0,30.21,North,0,0.0,-999.0,48,-99.99,,,-99.99,,2013-06-05 14:02:00,
2013-06-05 10:12:00,63.0,43.0,30.21,North,0,0.0,-999.0,48,-99.99,,,-99.99,,2013-06-05 14:12:00,
2013-06-05 10:22:00,64.0,41.0,30.21,North,0,0.0,-999.0,42,-99.99,,,-99.99,,2013-06-05 14:22:00,
2013-06-05 10:32:00,64.0,41.0,30.21,SE,130,3.0,-999.0,42,-99.99,,,-99.99,,2013-06-05 14:32:00,
2013-06-05 10:42:00,64.0,39.0,30.21,SE,130,6.0,-999.0,39,-99.99,,,-99.99,,2013-06-05 14:42:00,
2013-06-05 10:52:00,66.0,41.0,30.21,SE,130,3.0,-999.0,39,-99.99,,,-99.99,,2013-06-05 14:52:00,
2013-06-05 11:02:00,66.0,41.0,30.21,SE,130,3.0,-999.0,39,-99.99,,,-99.99,,2013-06-05 15:02:00,
2013-06-05 11:12:00,66.0,43.0,30.20,North,0,0.0,-999.0,42,-99.99,,,-99.99,,2013-06-05 15:12:00,
2013-06-05 11:22:00,66.0,43.0,30.20,North,0,0.0,-999.0,42,-99.99,,,-99.99,,2013-06-05 15:22:00,
2013-06-05 11:33:00,66.0,43.0,30.20,South,170,3.0,-999.0,42,-99.99,,,-99.99,,2013-06-05 15:33:00,
2013-06-05 11:42:00,66.0,41.0,30.20,North,0,0.0,-999.0,39,-99.99,,,-99.99,,2013-06-05 15:42:00,
2013-06-05 11:53:00,66.0,39.0,30.19,North,0,0.0,-999.0,37,-99.99,,,-99.99,,2013-06-05 15:53:00,
2013-06-05 12:03:00,66.0,39.0,30.19,North,0,0.0,-999.0,37,-99.99,,,-99.99,,2013-06-05 16:03:00,
2013-06-05 12:12:00,66.0,41.0,30.19,North,350,3.0,-999.0,39,-99.99,,,-99.99,,2013-06-05 16:12:00,
2013-06-05 12:23:00,70.0,43.0,30.18,North,0,0.0,-999.0,37,-99.99,,,-99.99,,2013-06-05 16:23:00,
2013-06-05 12:32:00,70.0,39.0,30.19,North,0,0.0,-999.0,32,-99.99,,,-99.99,,2013-06-05 16:32:00,
2013-06-05 12:42:00,70.0,41.0,30.19,SE,140,3.0,-999.0,35,-99.99,,,-99.99,,2013-06-05 16:42:00,
2013-06-05 12:54:00,70.0,39.0,30.18,SE,140,3.0,-999.0,32,-99.99,,,-99.99,,2013-06-05 16:54:00,
2013-06-05 13:02:00,70.0,39.0,30.18,SE,140,3.0,-999.0,32,-99.99,,,-99.99,,2013-06-05 17:02:00,
2013-06-05 13:12:00,72.0,43.0,30.18,North,0,0.0,-999.0,35,-99.99,,,-99.99,,2013-06-05 17:12:00,
2013-06-05 13:22:00,72.0,43.0,30.16,East,100,5.0,-999.0,35,-99.99,,,-99.99,,2013-06-05 17:22:00,
2013-06-05 13:33:00,72.0,45.0,30.17,SW,220,5.0,-999.0,37,-99.99,,,-99.99,,2013-06-05 17:33:00,
2013-06-05 13:43:00,72.0,45.0,30.16,SSE,150,7.0,-999.0,37,-99.99,,,-99.99,,2013-06-05 17:43:00,
2013-06-05 13:52:00,72.0,43.0,30.16,SE,140,6.0,-999.0,35,-99.99,,,-99.99,,2013-06-05 17:52:00,
2013-06-05 14:02:00,72.0,43.0,30.16,SE,140,6.0,-999.0,35,-99.99,,,-99.99,,2013-06-05 18:02:00,
2013-06-05 14:12:00,70.0,43.0,30.15,North,0,0.0,-999.0,37,-99.99,,,-99.99,,2013-06-05 18:12:00,
2013-06-05 14:22:00,72.0,45.0,30.14,East,100,5.0,-999.0,37,-99.99,,,-99.99,,2013-06-05 18:22:00,
2013-06-05 14:32:00,72.0,45.0,30.14,North,10,6.0,-999.0,37,-99.99,,,-99.99,,2013-06-05 18:32:00,
2013-06-05 14:42:00,72.0,43.0,30.14,North,360,6.0,-999.0,35,-99.99,,,-99.99,,2013-06-05 18:42:00,
2013-06-05 14:52:00,72.0,43.0,30.13,North,0,0.0,-999.0,35,-99.99,,,-99.99,,2013-06-05 18:52:00,
2013-06-05 15:03:00,72.0,43.0,30.13,North,0,0.0,-999.0,35,-99.99,,,-99.99,,2013-06-05 19:03:00,
2013-06-05 15:11:00,72.0,43.0,30.13,South,180,5.0,-999.0,35,-99.99,,,-99.99,,2013-06-05 19:11:00,
2013-06-05 15:22:00,72.0,39.0,30.13,North,0,0.0,-999.0,30,-99.99,,,-99.99,,2013-06-05 19:22:00,
2013-06-05 15:31:00,73.0,41.0,30.13,SSW,210,5.0,-999.0,31,-99.99,,,-99.99,,2013-06-05 19:31:00,
2013-06-05 15:52:00,73.0,41.0,30.11,North,0,0.0,-999.0,31,-99.99,,,-99.99,,2013-06-05 19:52:00,
2013-06-05 16:02:00,73.0,41.0,30.11,North,0,0.0,-999.0,31,-99.99,,,-99.99,,2013-06-05 20:02:00,
2013-06-05 16:11:00,72.0,41.0,30.11,North,0,0.0,-999.0,33,-99.99,,,-99.99,,2013-06-05 20:11:00,
2013-06-05 16:22:00,72.0,41.0,30.11,WSW,240,3.0,-999.0,33,-99.99,,,-99.99,,2013-06-05 20:22:00,
2013-06-05 16:32:00,73.0,41.0,30.10,West,280,5.0,-999.0,31,-99.99,,,-99.99,,2013-06-05 20:32:00,
2013-06-05 16:42:00,73.0,43.0,30.10,North,350,3.0,-999.0,33,-99.99,,,-99.99,,2013-06-05 20:42:00,
2013-06-05 16:52:00,73.0,43.0,30.10,North,0,0.0,-999.0,33,-99.99,,,-99.99,,2013-06-05 20:52:00,
2013-06-05 17:02:00,73.0,43.0,30.10,North,0,0.0,-999.0,33,-99.99,,,-99.99,,2013-06-05 21:02:00,
2013-06-05 17:11:00,73.0,43.0,30.10,West,260,5.0,-999.0,33,-99.99,,,-99.99,,2013-06-05 21:11:00,
2013-06-05 17:21:00,73.0,43.0,30.10,NW,310,3.0,-999.0,33,-99.99,,,-99.99,,2013-06-05 21:21:00,
2013-06-05 17:33:00,73.0,43.0,30.11,West,270,5.0,-999.0,33,-99.99,,,-99.99,,2013-06-05 21:33:00,
2013-06-05 17:42:00,73.0,41.0,30.11,SSW,200,3.0,-999.0,31,-99.99,,,-99.99,,2013-06-05 21:42:00,
2013-06-05 17:52:00,73.0,41.0,30.11,North,0,0.0,-999.0,31,-99.99,,,-99.99,,2013-06-05 21:52:00,
2013-06-05 18:02:00,73.0,41.0,30.11,North,0,0.0,-999.0,31,-99.99,,,-99.99,,2013-06-05 22:02:00,
2013-06-05 18:12:00,73.0,43.0,30.11,West,280,3.0,-999.0,33,-99.99,,,-99.99,,2013-06-05 22:12:00,
2013-06-05 18:22:00,73.0,43.0,30.11,North,0,0.0,-999.0,33,-99.99,,,-99.99,,2013-06-05 22:22:00,
2013-06-05 18:33:00,73.0,43.0,30.11,SSW,210,5.0,-999.0,33,-99.99,,,-99.99,,2013-06-05 22:33:00,
2013-06-05 18:42:00,73.0,43.0,30.11,South,190,3.0,-999.0,33,-99.99,,,-99.99,,2013-06-05 22:42:00,
2013-06-05 18:52:00,73.0,43.0,30.10,North,0,0.0,-999.0,33,-99.99,,,-99.99,,2013-06-05 22:52:00,
2013-06-05 19:02:00,73.0,43.0,30.10,North,0,0.0,-999.0,33,-99.99,,,-99.99,,2013-06-05 23:02:00,
2013-06-05 19:12:00,72.0,43.0,30.10,SSW,210,5.0,-999.0,35,-99.99,,,-99.99,,2013-06-05 23:12:00,
2013-06-05 19:22:00,72.0,45.0,30.10,SSE,150,6.0,-999.0,37,-99.99,,,-99.99,,2013-06-05 23:22:00,
2013-06-05 19:32:00,72.0,45.0,30.10,SSW,200,3.0,-999.0,37,-99.99,,,-99.99,,2013-06-05 23:32:00,
2013-06-05 19:42:00,72.0,46.0,30.10,North,0,0.0,-999.0,40,-99.99,,,-99.99,,2013-06-05 23:42:00,
2013-06-05 19:53:00,70.0,46.0,30.10,SW,220,3.0,-999.0,43,-99.99,,,-99.99,,2013-06-05 23:53:00,
2013-06-05 20:02:00,70.0,46.0,30.10,SW,220,3.0,-999.0,43,-99.99,,,-99.99,,2013-06-06 00:02:00,
2013-06-05 20:11:00,70.0,46.0,30.11,South,190,3.0,-999.0,43,-99.99,,,-99.99,,2013-06-06 00:11:00,
2013-06-05 20:21:00,68.0,45.0,30.10,South,190,3.0,-999.0,42,-99.99,,,-99.99,,2013-06-06 00:21:00,
2013-06-05 20:41:00,68.0,45.0,30.10,North,0,0.0,-999.0,42,-99.99,,,-99.99,,2013-06-06 00:41:00,
2013-06-05 20:51:00,68.0,43.0,30.11,North,0,0.0,-999.0,40,-99.99,,,-99.99,,2013-06-06 00:51:00,
2013-06-05 21:02:00,68.0,43.0,30.11,North,0,0.0,-999.0,40,-99.99,,,-99.99,,2013-06-06 01:02:00,
2013-06-05 21:12:00,66.0,46.0,30.11,North,0,0.0,-999.0,48,-99.99,,,-99.99,,2013-06-06 01:12:00,
2013-06-05 21:22:00,64.0,46.0,30.12,North,0,0.0,-999.0,51,-99.99,,,-99.99,,2013-06-06 01:22:00,
2013-06-05 21:32:00,64.0,48.0,30.12,North,0,0.0,-999.0,55,-99.99,,,-99.99,,2013-06-06 01:32:00,
2013-06-05 21:42:00,64.0,48.0,30.12,North,0,0.0,-999.0,55,-99.99,,,-99.99,,2013-06-06 01:42:00,
2013-06-05 21:52:00,63.0,48.0,30.12,North,0,0.0,-999.0,59,-99.99,,,-99.99,,2013-06-06 01:52:00,
2013-06-05 22:02:00,63.0,48.0,30.12,North,0,0.0,-999.0,59,-99.99,,,-99.99,,2013-06-06 02:02:00,
2013-06-05 22:12:00,61.0,48.0,30.13,North,0,0.0,-999.0,63,-99.99,,,-99.99,,2013-06-06 02:12:00,
2013-06-05 22:22:00,59.0,48.0,30.13,North,0,0.0,-999.0,67,-99.99,,,-99.99,,2013-06-06 02:22:00,
2013-06-05 22:32:00,59.0,50.0,30.13,North,0,0.0,-999.0,72,-99.99,,,-99.99,,2013-06-06 02:32:00,
2013-06-05 22:42:00,59.0,50.0,30.13,North,0,0.0,-999.0,72,-99.99,,,-99.99,,2013-06-06 02:42:00,
2013-06-05 22:52:00,59.0,50.0,30.13,North,0,0.0,-999.0,72,-99.99,,,-99.99,,2013-06-06 02:52:00,
2013-06-05 23:02:00,57.0,48.0,30.13,North,0,0.0,-999.0,71,-99.99,,,-99.99,,2013-06-06 03:02:00,
2013-06-05 23:12:00,57.0,52.0,30.13,NNE,20,8.0,-999.0,82,-99.99,,,-99.99,,2013-06-06 03:12:00,
2013-06-05 23:22:00,55.0,50.0,30.13,North,10,9.0,-999.0,81,-99.99,,,-99.99,,2013-06-06 03:22:00,
2013-06-05 23:33:00,57.0,50.0,30.13,North,10,8.0,-999.0,76,-99.99,,,-99.99,,2013-06-06 03:33:00,
2013-06-05 23:43:00,57.0,48.0,30.13,North,10,7.0,-999.0,71,-99.99,,,-99.99,,2013-06-06 03:43:00,
2013-06-05 23:52:00,57.0,48.0,30.14,NNE,20,3.0,-999.0,71,-99.99,,,-99.99,,2013-06-06 03:52:00,